[[{"header":{"parameterUnit":"m.s-1","parameterCategory":1,"la1":30.2991,"la2":30.254,"lo1":-89.0895,"lo2":-89.0444,"dy":0.0017,"dx":0.0017,"nx":28,"ny":28,"refTime":"2025-04-26T09:00:00:Z","depth":0,"parameterNumber":2,"parameterNumberName":"U-component_of_WINDS"},"data":[0,0,0,0,0,0,0,0,0,0,0,0,0,0,0,0,0,0,0,0,0,0,0,0,0,0,0,0,0,0,0,0,0,0,0,0,0,0,0,0,0,0,0,0,0,0,0,0,0,0,0,0,0,0,0,0,0,0,1.926,1.926,0,1.9279,1.9279,1.9279,1.9272,1.9272,1.9271,1.9271,1.9289,1.929,1.929,0,0,0,0,0,0,0,0,0,0,0,0,0,1.9218,1.9219,1.926,1.926,1.9261,1.9279,1.9279,1.9279,1.9272,1.9272,1.9271,1.9271,1.9288,1.9289,1.929,0,0,0,0,0,0,0,0,0,0,0,0,0,1.9236,1.9219,1.926,1.9259,1.9259,1.9279,1.9279,1.9279,1.9272,1.9272,1.9271,1.927,1.9288,1.9289,1.9291,1.9312,0,0,1.9295,1.9295,0,0,0,0,0,0,0,0,1.9235,1.9238,1.9259,1.9259,1.926,1.9272,1.9271,1.929,1.9272,1.9267,1.9271,1.927,1.9284,1.9285,1.929,1.9312,1.9313,1.9295,1.9296,1.9296,1.9297,0,0,0,0,0,0,0,1.9234,1.9237,1.9268,1.926,1.926,1.9258,1.926,1.9274,1.9279,1.9268,1.9267,1.927,1.9284,1.9289,1.9291,1.9313,1.9295,1.9296,1.9297,1.9297,1.9354,1.9355,0,0,0,0,0,0,1.9233,1.9236,1.9267,1.9268,1.9246,1.9259,1.9261,1.9269,1.9279,1.928,1.927,1.9269,1.9287,1.9289,1.9291,1.9317,1.9296,1.9297,1.9298,1.9353,1.9354,1.9355,0,0,0,0,0,0,1.9232,1.9236,1.9266,1.9252,1.9256,1.926,1.9269,1.927,1.9275,1.9281,1.9281,1.9275,1.9287,1.9289,1.9307,1.9317,1.9298,1.9299,1.9352,1.9354,1.9355,1.9367,0,0,0,0,0,0,1.9231,1.9235,1.9243,1.9252,1.9256,1.9282,1.927,1.927,1.9277,1.9276,1.9285,1.9286,1.9286,1.9305,1.9308,1.9318,1.93,1.9352,1.9353,1.9354,1.9366,1.9369,1.9371,0,0,0,0,0,1.9229,1.9246,1.9244,1.9248,1.9267,1.9282,1.9285,1.9285,1.9278,1.9286,1.929,1.9286,1.9315,1.9307,1.931,1.9321,1.9351,1.9353,1.9354,1.9365,1.9368,1.9371,0,0,0,0,0,0,1.9238,1.9247,1.9245,1.9265,1.9273,1.9281,1.9291,1.9289,1.9298,1.9297,1.9297,1.9299,1.9317,1.9321,1.9311,1.9342,1.9332,1.9334,1.9339,1.9342,1.9345,1.9343,1.9301,0,0,0,0,0,1.9242,1.9255,1.9262,1.9279,1.9283,1.9287,1.9293,1.9293,1.9301,1.9304,1.9309,1.9317,1.9328,1.9335,1.9346,1.9366,1.9368,1.9376,1.9378,1.938,1.9382,1.9394,1.9397,1.936,1.936,1.936,0,0,1.9251,1.9258,1.9265,1.9281,1.9287,1.9299,1.9289,1.9303,1.9312,1.9306,1.9323,1.9327,1.9335,1.9355,1.9363,1.9358,1.9393,1.9382,1.9384,1.9385,1.9396,1.9399,1.9402,1.9361,1.9361,1.9361,0,0,1.9274,1.928,1.9295,1.9302,1.9311,1.9314,1.9317,1.9326,1.9328,1.9345,1.9341,1.9352,1.9371,1.9378,1.9383,1.9409,1.9405,1.9412,1.9425,1.9436,1.9439,1.9442,1.9451,1.9454,1.9414,1.9414,1.9414,0,1.9284,1.9303,1.9303,1.9317,1.9324,1.932,1.9335,1.9341,1.9354,1.9358,1.9353,1.9377,1.9382,1.9403,1.9409,1.9414,1.9418,1.9411,1.9439,1.9441,1.9444,1.9453,1.9456,1.9415,1.9415,1.9415,1.9415,0,1.9315,1.9328,1.9339,1.9351,1.9359,1.9374,1.9376,1.9384,1.9383,1.9386,1.9404,1.941,1.9422,1.9427,1.9426,1.9448,1.9444,1.9439,1.9429,1.9448,1.9456,1.946,1.9416,1.9416,1.9416,1.9416,0,0,1.9343,1.9356,1.936,1.9366,1.9376,1.9386,1.9401,1.9413,1.9419,1.9428,1.944,1.9456,1.9452,1.9458,1.9458,1.9468,1.9487,1.9461,1.9461,1.9466,1.9512,1.9516,1.952,1.9485,1.9486,1.9486,1.9511,0,1.9367,1.9392,1.9394,1.9417,1.9429,1.9425,1.9437,1.9445,1.9448,1.9458,1.9462,1.9473,1.9466,1.947,1.9479,1.9483,1.9497,1.9481,1.9496,1.9496,1.9494,1.9524,1.9528,1.9551,1.9514,1.9515,1.9515,0,1.9398,1.9408,1.9433,1.9441,1.9446,1.9458,1.9469,1.9479,1.9487,1.9489,1.9496,1.9495,1.9509,1.9499,1.9518,1.9508,1.9514,1.9517,1.9517,1.9519,1.9507,1.9526,1.9558,1.9562,1.952,1.952,1.9519,0,1.9417,1.9436,1.9454,1.9459,1.9469,1.9477,1.9482,1.949,1.9497,1.9507,1.9511,1.9522,1.9528,1.9537,1.9538,1.953,1.9558,1.9548,1.9559,1.9559,1.9565,1.9565,1.9599,1.9569,1.9569,1.9569,1.9569,0,1.9443,1.9458,1.9462,1.9473,1.9489,1.9491,1.9507,1.9511,1.9518,1.9529,1.9527,1.9537,1.9538,1.9549,1.955,1.9566,1.9569,1.957,1.957,1.9571,1.957,1.9574,1.9573,1.957,1.957,1.957,1.957,0,1.9467,1.947,1.9489,1.9497,1.95,1.9512,1.9519,1.9529,1.9532,1.9546,1.955,1.9554,1.9566,1.9569,1.9583,1.9584,1.9603,1.9602,1.96,1.96,1.9612,1.9611,1.965,1.9655,1.9622,1.9622,1.9623,0,1.9483,1.9495,1.9505,1.9513,1.9518,1.953,1.9537,1.9539,1.9547,1.9557,1.9566,1.9578,1.9588,1.9608,1.9612,1.9623,1.9622,1.9635,1.9624,1.9624,1.9622,1.9622,1.9623,1.9637,1.9638,1.9638,1.9638,0,1.9513,1.9514,1.9525,1.9537,1.9546,1.9555,1.9564,1.957,1.9572,1.9581,1.9594,1.9602,1.9617,1.9629,1.964,1.9645,1.9642,1.9642,1.9645,1.9645,1.9644,1.9645,1.9606,1.9641,1.9641,1.964,1.964,1.964,1.9533,1.9544,1.9552,1.9565,1.9572,1.958,1.959,1.9594,1.9605,1.9618,1.9618,1.9632,1.964,1.9655,1.966,1.9671,1.9667,1.9671,1.9673,1.9674,1.9675,1.9643,1.9673,1.9673,1.9673,1.9673,1.9673,0,1.9563,1.9568,1.958,1.9592,1.9602,1.9599,1.9608,1.9616,1.9629,1.9637,1.9647,1.9662,1.9674,1.9679,1.969,1.9698,1.9697,1.9701,1.97,1.9702,1.9678,1.9674,1.9702,1.9702,1.9702,1.9702,1.9702,1.9702,1.9579,1.9596,1.9598,1.9619,1.9624,1.9638,1.9644,1.9651,1.9658,1.9675,1.9685,1.9688,1.9695,1.9707,1.9718,1.9719,1.9723,1.9728,1.9728,1.9706,1.9703,1.97,1.9697,1.9729,1.9729,1.9751,1.9751,1.9751]},{"header":{"parameterUnit":"m.s-1","parameterCategory":1,"la1":30.2991,"la2":30.254,"lo1":-89.0895,"lo2":-89.0444,"dy":0.0017,"dx":0.0017,"nx":28,"ny":28,"refTime":"2025-04-26T09:00:00:Z","depth":0,"parameterNumber":3,"parameterNumberName":"V-component_of_WINDS"},"data":[0,0,0,0,0,0,0,0,0,0,0,0,0,0,0,0,0,0,0,0,0,0,0,0,0,0,0,0,0,0,0,0,0,0,0,0,0,0,0,0,0,0,0,0,0,0,0,0,0,0,0,0,0,0,0,0,0,0,-0.2918,-0.2918,0,-0.2932,-0.2932,-0.2932,-0.2957,-0.2957,-0.2958,-0.2958,-0.2972,-0.2972,-0.2971,0,0,0,0,0,0,0,0,0,0,0,0,0,-0.2912,-0.2912,-0.2918,-0.2918,-0.2918,-0.2932,-0.2932,-0.2932,-0.2957,-0.2957,-0.2958,-0.2958,-0.2972,-0.2972,-0.2971,0,0,0,0,0,0,0,0,0,0,0,0,0,-0.2919,-0.2912,-0.2917,-0.2932,-0.2933,-0.2932,-0.2932,-0.2932,-0.2956,-0.2957,-0.2958,-0.2959,-0.2972,-0.2972,-0.2971,-0.2957,0,0,-0.2971,-0.2971,0,0,0,0,0,0,0,0,-0.2919,-0.2919,-0.2929,-0.2931,-0.2932,-0.2943,-0.2935,-0.294,-0.2956,-0.2948,-0.2958,-0.2959,-0.2962,-0.2962,-0.2963,-0.2957,-0.2958,-0.2971,-0.2971,-0.2971,-0.2971,0,0,0,0,0,0,0,-0.2918,-0.2919,-0.2923,-0.293,-0.2931,-0.2938,-0.2939,-0.2936,-0.295,-0.2948,-0.295,-0.2952,-0.2962,-0.2963,-0.2964,-0.2958,-0.2971,-0.2971,-0.2971,-0.2971,-0.2943,-0.2942,0,0,0,0,0,0,-0.2915,-0.2918,-0.2923,-0.2924,-0.2927,-0.2937,-0.2939,-0.2939,-0.2951,-0.2953,-0.2951,-0.2953,-0.2963,-0.2964,-0.2964,-0.2949,-0.2971,-0.2971,-0.2971,-0.2944,-0.2943,-0.2942,0,0,0,0,0,0,-0.2915,-0.2916,-0.2922,-0.2921,-0.2923,-0.2937,-0.2936,-0.2939,-0.294,-0.2953,-0.2955,-0.2949,-0.2964,-0.2965,-0.2959,-0.295,-0.2971,-0.2971,-0.2945,-0.2943,-0.2943,-0.2918,0,0,0,0,0,0,-0.2915,-0.2915,-0.291,-0.2921,-0.2923,-0.2916,-0.2936,-0.2939,-0.294,-0.2942,-0.2952,-0.2954,-0.2964,-0.2959,-0.2959,-0.295,-0.2971,-0.2945,-0.2944,-0.2943,-0.292,-0.2916,-0.2914,0,0,0,0,0,-0.2915,-0.2902,-0.2909,-0.291,-0.2916,-0.2916,-0.2917,-0.2929,-0.2939,-0.2934,-0.2942,-0.2954,-0.2951,-0.2958,-0.2958,-0.295,-0.2946,-0.2944,-0.2943,-0.2921,-0.2917,-0.2914,0,0,0,0,0,0,-0.2888,-0.2903,-0.2912,-0.2902,-0.2908,-0.292,-0.2913,-0.2924,-0.2926,-0.2928,-0.2944,-0.2946,-0.2939,-0.2943,-0.2951,-0.2937,-0.295,-0.2949,-0.2934,-0.293,-0.2927,-0.2926,-0.2971,0,0,0,0,0,-0.2881,-0.288,-0.2893,-0.2883,-0.2886,-0.2899,-0.2899,-0.2909,-0.2915,-0.2917,-0.2925,-0.293,-0.2931,-0.2931,-0.2932,-0.2921,-0.2924,-0.2915,-0.2912,-0.2909,-0.2908,-0.2904,-0.29,-0.2937,-0.2937,-0.2937,0,0,-0.2867,-0.2875,-0.2873,-0.2878,-0.2884,-0.2882,-0.2901,-0.2898,-0.2897,-0.2917,-0.2912,-0.2918,-0.2925,-0.2917,-0.2914,-0.2921,-0.2898,-0.2907,-0.2905,-0.2905,-0.2902,-0.2898,-0.2895,-0.2936,-0.2936,-0.2936,0,0,-0.284,-0.2846,-0.2839,-0.2844,-0.2852,-0.2862,-0.286,-0.2871,-0.2876,-0.2872,-0.2887,-0.2886,-0.2886,-0.2891,-0.2894,-0.2871,-0.2882,-0.2871,-0.2854,-0.285,-0.2847,-0.2845,-0.2837,-0.2834,-0.2869,-0.2869,-0.2869,0,-0.2821,-0.2819,-0.2834,-0.2831,-0.2833,-0.2852,-0.2845,-0.285,-0.2857,-0.2859,-0.2867,-0.2869,-0.2874,-0.2868,-0.2863,-0.2864,-0.2863,-0.2869,-0.2846,-0.2844,-0.2842,-0.2835,-0.2832,-0.2868,-0.2868,-0.2868,-0.2868,0,-0.2796,-0.2795,-0.2789,-0.2797,-0.2798,-0.2793,-0.2808,-0.2808,-0.2817,-0.2826,-0.2822,-0.283,-0.2834,-0.2833,-0.2842,-0.2829,-0.2834,-0.2844,-0.2858,-0.2837,-0.2831,-0.2828,-0.2866,-0.2866,-0.2867,-0.2867,0,0,-0.2752,-0.277,-0.2767,-0.2772,-0.2783,-0.2782,-0.2779,-0.2783,-0.2783,-0.2788,-0.2786,-0.2787,-0.2797,-0.28,-0.281,-0.2806,-0.2789,-0.2817,-0.2817,-0.2812,-0.2776,-0.2768,-0.2765,-0.2796,-0.2796,-0.2795,-0.2776,0,-0.2728,-0.2723,-0.2737,-0.2729,-0.2729,-0.2747,-0.2744,-0.2751,-0.2759,-0.276,-0.2769,-0.277,-0.2783,-0.2785,-0.2782,-0.2791,-0.2782,-0.2793,-0.2795,-0.2795,-0.2793,-0.2762,-0.2754,-0.2734,-0.2773,-0.2773,-0.2773,0,-0.2699,-0.2704,-0.2696,-0.2709,-0.2709,-0.2706,-0.2712,-0.2713,-0.2721,-0.2728,-0.2732,-0.2744,-0.2742,-0.2755,-0.2753,-0.2761,-0.2763,-0.2767,-0.2767,-0.2768,-0.2782,-0.2762,-0.2729,-0.2726,-0.2769,-0.2769,-0.2769,0,-0.2668,-0.2673,-0.2669,-0.2672,-0.2687,-0.2685,-0.2691,-0.27,-0.2703,-0.2708,-0.271,-0.2714,-0.2717,-0.272,-0.2734,-0.2742,-0.273,-0.2745,-0.2736,-0.2736,-0.2733,-0.2733,-0.2699,-0.2733,-0.2733,-0.2733,-0.2733,0,-0.264,-0.2635,-0.2656,-0.2653,-0.2648,-0.2665,-0.2659,-0.2667,-0.2675,-0.2675,-0.2691,-0.2691,-0.2708,-0.271,-0.272,-0.2718,-0.2719,-0.2724,-0.2727,-0.2723,-0.2722,-0.2724,-0.2726,-0.2732,-0.2733,-0.2733,-0.2733,0,-0.2605,-0.2619,-0.2616,-0.2631,-0.2635,-0.2631,-0.2644,-0.2642,-0.2652,-0.2652,-0.2653,-0.2668,-0.2671,-0.2685,-0.2691,-0.2698,-0.2692,-0.2697,-0.2689,-0.2691,-0.2682,-0.2683,-0.2649,-0.2646,-0.2681,-0.2681,-0.268,0,-0.2586,-0.2583,-0.2598,-0.2599,-0.2605,-0.2607,-0.261,-0.2626,-0.2628,-0.2639,-0.2636,-0.2641,-0.2645,-0.2649,-0.2661,-0.2666,-0.2672,-0.266,-0.2672,-0.2669,-0.2672,-0.2673,-0.2673,-0.2657,-0.2656,-0.2656,-0.2655,0,-0.2552,-0.2559,-0.2563,-0.2569,-0.2573,-0.2578,-0.2585,-0.2585,-0.2603,-0.2605,-0.2609,-0.2612,-0.2619,-0.2624,-0.2631,-0.2638,-0.265,-0.2652,-0.265,-0.2646,-0.2642,-0.2644,-0.2682,-0.2652,-0.2652,-0.2653,-0.2653,-0.2653,-0.2525,-0.2523,-0.2534,-0.2538,-0.2545,-0.2551,-0.2551,-0.2562,-0.2565,-0.2572,-0.2582,-0.2585,-0.2595,-0.2606,-0.2612,-0.2614,-0.2621,-0.2618,-0.2618,-0.2617,-0.2615,-0.2641,-0.2615,-0.2616,-0.2616,-0.2616,-0.2616,0,-0.2492,-0.25,-0.2504,-0.2513,-0.2516,-0.2528,-0.2537,-0.2539,-0.2541,-0.255,-0.2554,-0.2559,-0.2564,-0.2577,-0.2583,-0.2583,-0.2588,-0.2584,-0.2584,-0.2586,-0.2608,-0.261,-0.2579,-0.2579,-0.2579,-0.2579,-0.2579,-0.2579,-0.2475,-0.2473,-0.2482,-0.2485,-0.2493,-0.2496,-0.25,-0.2506,-0.2513,-0.2518,-0.2523,-0.2531,-0.2542,-0.2549,-0.2554,-0.2558,-0.256,-0.2553,-0.2559,-0.258,-0.2584,-0.2587,-0.2588,-0.2554,-0.2554,-0.2536,-0.2536,-0.2536]}]]